• In Hungary
  • List of Countries
  • For 7 days
  • Water Temperature
  • Satellite Maps
  • Weather Map
  • News
  • Weather Widgets
  • user-avatar
    Login

    Hourly Weather Santa Lucía

    Today, 18 June, Monday

    Time Temperature Precipitation Wind Pressure Humidity
    00:00 +22°C° 1.1 mm 1 mps 695 mmHg 94%
    01:00 +22°C° 0.1 mm 1 mps 694 mmHg 94%
    02:00 +22°C° 0.1 mm 1 mps 694 mmHg 94%
    03:00 +22°C° 0.1 mm 1 mps 694 mmHg 94%
    04:00 +22°C° 0 mm 1 mps 694 mmHg 93%
    05:00 +22°C° 0 mm 1 mps 694 mmHg 93%
    06:00 +22°C° 0 mm 1 mps 694 mmHg 93%
    07:00 +24°C° 0 mm 1 mps 695 mmHg 86%
    08:00 +23°C° 0 mm 0 mps 695 mmHg 80%
    09:00 +25°C° 0 mm 0 mps 696 mmHg 73%
    10:00 +29°C° 0 mm 1 mps 696 mmHg 65%
    11:00 +30°C° 0 mm 1 mps 696 mmHg 56%
    12:00 +32°C° 0 mm 1 mps 696 mmHg 48%
    13:00 +32°C° 0 mm 2 mps 695 mmHg 50%
    14:00 +31°C° 0 mm 2 mps 694 mmHg 53%
    15:00 +31°C° 0 mm 3 mps 694 mmHg 55%
    16:00 +29°C° 0.1 mm 3 mps 694 mmHg 63%
    17:00 +27°C° 0.1 mm 2 mps 694 mmHg 72%
    18:00 +26°C° 0.1 mm 2 mps 693 mmHg 80%
    19:00 +25°C° 0.6 mm 2 mps 694 mmHg 85%
    20:00 +24°C° 0.6 mm 2 mps 694 mmHg 90%
    21:00 +23°C° 0.6 mm 1 mps 695 mmHg 95%
    22:00 +23°C° 0.8 mm 1 mps 695 mmHg 95%
    23:00 +23°C° 0.8 mm 1 mps 695 mmHg 96%

    Tomorrow, 19 June, Tuesday

    Time Temperature Precipitation Wind Pressure Humidity
    00:00 +22°C° 0.8 mm 1 mps 695 mmHg 96%
    01:00 +22°C° 0.6 mm 1 mps 694 mmHg 96%
    02:00 +22°C° 0.6 mm 1 mps 694 mmHg 95%
    03:00 +22°C° 0.6 mm 1 mps 694 mmHg 95%
    04:00 +22°C° 0.1 mm 1 mps 694 mmHg 94%
    05:00 +22°C° 0.1 mm 1 mps 694 mmHg 94%
    06:00 +22°C° 0.1 mm 1 mps 694 mmHg 93%
    07:00 +24°C° 0 mm 1 mps 694 mmHg 84%
    08:00 +26°C° 0 mm 1 mps 695 mmHg 74%
    09:00 +26°C° 0 mm 0 mps 695 mmHg 65%
    10:00 +30°C° 0 mm 1 mps 695 mmHg 58%
    11:00 +31°C° 0 mm 1 mps 695 mmHg 51%
    12:00 +34°C° 0 mm 2 mps 695 mmHg 44%
    13:00 +32°C° 0 mm 2 mps 694 mmHg 46%
    14:00 +32°C° 0 mm 2 mps 694 mmHg 47%
    15:00 +33°C° 0 mm 3 mps 693 mmHg 48%
    16:00 +30°C° 0.1 mm 3 mps 693 mmHg 58%
    17:00 +28°C° 0.1 mm 3 mps 693 mmHg 67%
    18:00 +26°C° 0.1 mm 3 mps 693 mmHg 76%
    19:00 +25°C° 0.3 mm 2 mps 693 mmHg 83%
    20:00 +24°C° 0.3 mm 2 mps 693 mmHg 89%
    21:00 +23°C° 0.3 mm 1 mps 694 mmHg 95%
    22:00 +22°C° 0.1 mm 1 mps 694 mmHg 95%
    23:00 +22°C° 0.1 mm 1 mps 694 mmHg 95%

    Day after tomorrow, 20 June, Wednesday

    Time Temperature Precipitation Wind Pressure Humidity
    00:00 +22°C° 0.1 mm 1 mps 694 mmHg 95%
    01:00 +22°C° 0.2 mm 1 mps 693 mmHg 95%
    02:00 +22°C° 0.2 mm 1 mps 693 mmHg 95%
    03:00 +22°C° 0.2 mm 1 mps 692 mmHg 94%
    04:00 +21°C° 0.1 mm 1 mps 692 mmHg 94%
    05:00 +21°C° 0.1 mm 1 mps 693 mmHg 93%
    06:00 +21°C° 0.1 mm 1 mps 693 mmHg 92%
    07:00 +24°C° 0 mm 1 mps 693 mmHg 79%
    08:00 +27°C° 0 mm 1 mps 694 mmHg 67%
    09:00 +28°C° 0 mm 0 mps 695 mmHg 55%
    10:00 +31°C° 0 mm 1 mps 695 mmHg 50%
    11:00 +33°C° 0 mm 1 mps 694 mmHg 46%
    12:00 +35°C° 0 mm 2 mps 694 mmHg 41%
    13:00 +34°C° 0.2 mm 2 mps 694 mmHg 46%
    14:00 +31°C° 0.2 mm 2 mps 693 mmHg 51%
    15:00 +30°C° 0.2 mm 3 mps 692 mmHg 56%
    16:00 +29°C° 0.8 mm 3 mps 692 mmHg 63%
    17:00 +27°C° 0.8 mm 2 mps 692 mmHg 69%
    18:00 +26°C° 0.8 mm 2 mps 692 mmHg 76%
    19:00 +25°C° 0.9 mm 2 mps 693 mmHg 81%
    20:00 +24°C° 0.9 mm 2 mps 693 mmHg 86%
    21:00 +23°C° 0.9 mm 1 mps 693 mmHg 91%
    22:00 +22°C° 0.5 mm 1 mps 693 mmHg 91%
    23:00 +22°C° 0.5 mm 1 mps 693 mmHg 91%

    21 June, Thursday

    Time Temperature Precipitation Wind Pressure Humidity
    00:00 +22°C° 0.5 mm 1 mps 693 mmHg 91%
    01:00 +22°C° 0.1 mm 1 mps 693 mmHg 91%
    02:00 +22°C° 0.1 mm 1 mps 692 mmHg 90%
    03:00 +21°C° 0.1 mm 1 mps 692 mmHg 90%
    04:00 +21°C° 0 mm 1 mps 692 mmHg 89%
    05:00 +21°C° 0 mm 1 mps 692 mmHg 88%
    06:00 +22°C° 0 mm 1 mps 693 mmHg 87%
    07:00 +24°C° 0 mm 1 mps 693 mmHg 78%
    08:00 +26°C° 0 mm 1 mps 694 mmHg 69%
    09:00 +28°C° 0 mm 1 mps 695 mmHg 60%
    10:00 +29°C° 0.2 mm 1 mps 695 mmHg 56%
    11:00 +31°C° 0.2 mm 1 mps 695 mmHg 52%
    12:00 +32°C° 0.2 mm 1 mps 694 mmHg 48%
    13:00 +31°C° 0.9 mm 1 mps 694 mmHg 53%
    14:00 +30°C° 0.9 mm 2 mps 693 mmHg 58%
    15:00 +29°C° 0.9 mm 2 mps 693 mmHg 63%
    16:00 +27°C° 1.7 mm 2 mps 693 mmHg 71%
    17:00 +26°C° 1.7 mm 2 mps 693 mmHg 79%
    18:00 +24°C° 1.7 mm 1 mps 693 mmHg 87%
    19:00 +23°C° 1.2 mm 1 mps 693 mmHg 88%
    20:00 +23°C° 1.2 mm 1 mps 694 mmHg 89%
    21:00 +22°C° 1.2 mm 1 mps 694 mmHg 90%
    22:00 +22°C° 0.4 mm 1 mps 694 mmHg 90%
    23:00 +22°C° 0.4 mm 1 mps 694 mmHg 90%

    22 June, Friday

    Time Temperature Precipitation Wind Pressure Humidity
    00:00 +21°C° 0.4 mm 1 mps 694 mmHg 90%
    01:00 +21°C° 0.5 mm 1 mps 693 mmHg 90%
    02:00 +21°C° 0.5 mm 1 mps 693 mmHg 91%
    03:00 +21°C° 0.5 mm 1 mps 693 mmHg 92%
    04:00 +21°C° 0.3 mm 1 mps 693 mmHg 92%
    05:00 +21°C° 0.3 mm 1 mps 693 mmHg 92%
    06:00 +21°C° 0.3 mm 1 mps 694 mmHg 92%
    07:00 +22°C° 0.2 mm 1 mps 694 mmHg 88%
    08:00 +23°C° 0.2 mm 1 mps 695 mmHg 84%
    09:00 +24°C° 0.2 mm 1 mps 695 mmHg 80%
    10:00 +25°C° 0.3 mm 1 mps 695 mmHg 74%
    11:00 +27°C° 0.3 mm 1 mps 695 mmHg 67%
    12:00 +28°C° 0.3 mm 1 mps 695 mmHg 61%
    13:00 +28°C° 0.3 mm 1 mps 694 mmHg 63%
    14:00 +27°C° 0.3 mm 2 mps 694 mmHg 65%
    15:00 +27°C° 0.3 mm 2 mps 693 mmHg 67%
    16:00 +26°C° 0.5 mm 2 mps 693 mmHg 72%
    17:00 +25°C° 0.5 mm 2 mps 693 mmHg 76%
    18:00 +24°C° 0.5 mm 2 mps 694 mmHg 81%
    19:00 +23°C° 0.7 mm 2 mps 694 mmHg 83%
    20:00 +23°C° 0.7 mm 1 mps 694 mmHg 86%
    21:00 +22°C° 0.7 mm 1 mps 695 mmHg 88%
    22:00 +22°C° 1 mm 1 mps 694 mmHg 90%
    23:00 +22°C° 1 mm 1 mps 694 mmHg 91%

    23 June, Saturday

    Time Temperature Precipitation Wind Pressure Humidity
    00:00 +21°C° 1 mm 1 mps 694 mmHg 93%
    01:00 +21°C° 0.4 mm 1 mps 694 mmHg 93%
    02:00 +21°C° 0.4 mm 1 mps 693 mmHg 94%
    03:00 +21°C° 0.4 mm 1 mps 693 mmHg 94%
    04:00 +21°C° 0.1 mm 1 mps 693 mmHg 94%
    05:00 +21°C° 0.1 mm 1 mps 693 mmHg 94%
    06:00 +21°C° 0.1 mm 1 mps 694 mmHg 93%
    07:00 +23°C° 0.1 mm 1 mps 694 mmHg 83%
    08:00 +24°C° 0.1 mm 0 mps 695 mmHg 73%
    09:00 +26°C° 0.1 mm 0 mps 695 mmHg 62%
    10:00 +29°C° 0.2 mm 1 mps 695 mmHg 58%
    11:00 +31°C° 0.2 mm 1 mps 695 mmHg 55%
    12:00 +32°C° 0.2 mm 1 mps 695 mmHg 51%
    13:00 +31°C° 0.9 mm 2 mps 694 mmHg 57%
    14:00 +30°C° 0.9 mm 2 mps 693 mmHg 63%
    15:00 +29°C° 0.9 mm 3 mps 693 mmHg 69%
    16:00 +27°C° 1.9 mm 3 mps 693 mmHg 75%
    17:00 +25°C° 1.9 mm 2 mps 693 mmHg 82%
    18:00 +24°C° 1.9 mm 2 mps 693 mmHg 89%
    19:00 +23°C° 3.2 mm 2 mps 693 mmHg 90%
    20:00 +23°C° 3.2 mm 2 mps 694 mmHg 92%
    21:00 +23°C° 3.2 mm 2 mps 694 mmHg 93%
    22:00 +21°C° 1.1 mm 2 mps 694 mmHg 93%
    23:00 +21°C° 1.1 mm 2 mps 694 mmHg 94%
    Show more